Satellite-Ground Cal/Val Site Overpasses Predictions

Prediction of Satellite NPP Overpassing Cal/Val Site: Antarctic Dome C

Ground Cal/Val Site Location: Latitude: -75.10, Longitude: 123.35; Satellite-Ground Site NADIR distance within 100 km.

Table of predicted overpasses for the next 14.0 days since TLE Epoch: 11/18/2023
Interval Starting Time Ending Time Minimum Distance Time Minimum Distance (km)
1 11/19/2023 15:01:54 11/19/2023 15:02:18 11/19/2023 15:02:06 57.97
2 11/20/2023 14:43:03 11/20/2023 14:43:28 11/20/2023 14:43:15 51.29
3 11/21/2023 07:44:45 11/21/2023 07:45:04 11/21/2023 07:44:54 72.80
4 11/22/2023 07:25:51 11/22/2023 07:26:18 11/22/2023 07:26:04 35.15
5 11/24/2023 15:08:17 11/24/2023 15:08:24 11/24/2023 15:08:21 95.76
6 11/25/2023 14:49:16 11/25/2023 14:49:45 11/25/2023 14:49:31 15.59
7 11/27/2023 07:32:05 11/27/2023 07:32:34 11/27/2023 07:32:20 2.69
8 11/30/2023 14:55:30 11/30/2023 14:55:59 11/30/2023 14:55:45 20.91
